[[{"header":{"parameterUnit":"m.s-1","parameterCategory":2,"la1":30.2991,"la2":30.254,"lo1":-89.0895,"lo2":-89.0444,"dy":0.0017,"dx":0.0017,"nx":28,"ny":28,"refTime":"2024-02-02T03:00:00:Z","depth":"0","parameterNumber":2,"parameterNumberName":"U-component_of_CURRENTS"},"data":[0,0,0,0,0,0,0,0,0,0,0,0,0,0,0,0,0,0,0,0,0,0,0,0,0,0,0,0,0,0,0,0,0,0,0,0,0,0,0,0,0,0,0,0,0,0,0,0,0,0,0,0,0,0,0,0,0,0,-0.2702,-0.2702,0,-0.2644,-0.2643,-0.2642,-0.26,-0.26,-0.26,-0.26,-0.2578,-0.2578,-0.2577,0,0,0,0,0,0,0,0,0,0,0,0,0,-0.2791,-0.2789,-0.2702,-0.2702,-0.2701,-0.2644,-0.2643,-0.2642,-0.26,-0.26,-0.26,-0.26,-0.2579,-0.2578,-0.2577,0,0,0,0,0,0,0,0,0,0,0,0,0,-0.2741,-0.2788,-0.2702,-0.2677,-0.2674,-0.2644,-0.2643,-0.2641,-0.26,-0.26,-0.26,-0.26,-0.2579,-0.2578,-0.2577,-0.2572,0,0,-0.2575,-0.2574,0,0,0,0,0,0,0,0,-0.2744,-0.2737,-0.2681,-0.2678,-0.2675,-0.2633,-0.2666,-0.2621,-0.26,-0.2624,-0.26,-0.26,-0.2602,-0.26,-0.2583,-0.2571,-0.257,-0.2575,-0.2574,-0.2574,-0.2573,0,0,0,0,0,0,0,-0.2747,-0.274,-0.2675,-0.268,-0.2677,-0.2673,-0.2665,-0.2657,-0.2612,-0.2622,-0.262,-0.2619,-0.2601,-0.2584,-0.2582,-0.257,-0.2575,-0.2574,-0.2573,-0.2573,-0.2515,-0.2514,0,0,0,0,0,0,-0.2761,-0.2743,-0.2677,-0.2674,-0.2714,-0.2671,-0.2663,-0.2643,-0.2611,-0.2607,-0.2619,-0.2618,-0.2585,-0.2583,-0.2581,-0.2533,-0.2574,-0.2573,-0.2572,-0.2516,-0.2515,-0.2514,0,0,0,0,0,0,-0.2762,-0.2755,-0.268,-0.2711,-0.2702,-0.267,-0.2649,-0.2642,-0.262,-0.2609,-0.2605,-0.2603,-0.2585,-0.2583,-0.2559,-0.2534,-0.2572,-0.2572,-0.2517,-0.2516,-0.2514,-0.2464,0,0,0,0,0,0,-0.2765,-0.2755,-0.2746,-0.2711,-0.2701,-0.2648,-0.2649,-0.2641,-0.2621,-0.2618,-0.2594,-0.2592,-0.2585,-0.256,-0.2558,-0.2534,-0.2571,-0.2519,-0.2517,-0.2515,-0.2467,-0.2461,-0.2455,0,0,0,0,0,-0.2768,-0.2748,-0.2745,-0.2738,-0.2688,-0.2648,-0.264,-0.2617,-0.2621,-0.2599,-0.2585,-0.2593,-0.2546,-0.2558,-0.2556,-0.2531,-0.2519,-0.2517,-0.2515,-0.2469,-0.2462,-0.2456,0,0,0,0,0,0,-0.2781,-0.2741,-0.2738,-0.2707,-0.2678,-0.2642,-0.2626,-0.2615,-0.2586,-0.2587,-0.258,-0.2576,-0.2547,-0.2548,-0.2561,-0.2509,-0.2534,-0.2532,-0.25,-0.2493,-0.2488,-0.2484,-0.257,0,0,0,0,0,-0.2783,-0.2753,-0.2722,-0.2697,-0.2685,-0.2658,-0.2642,-0.2624,-0.2598,-0.2584,-0.2565,-0.2551,-0.2536,-0.2522,-0.2509,-0.2481,-0.2469,-0.2464,-0.2459,-0.2454,-0.2449,-0.2403,-0.2392,-0.2506,-0.2506,-0.2506,0,0,-0.2782,-0.2757,-0.2741,-0.2698,-0.2676,-0.2644,-0.2645,-0.2614,-0.2579,-0.2589,-0.2537,-0.2533,-0.2526,-0.2489,-0.2476,-0.2485,-0.2414,-0.2451,-0.2447,-0.2445,-0.2399,-0.2388,-0.2378,-0.2505,-0.2505,-0.2505,0,0,-0.2751,-0.2743,-0.2702,-0.2681,-0.2647,-0.2632,-0.2624,-0.2582,-0.2555,-0.2512,-0.2513,-0.2492,-0.2461,-0.2443,-0.2436,-0.2394,-0.239,-0.2393,-0.2354,-0.2309,-0.2299,-0.229,-0.2254,-0.2242,-0.2384,-0.2384,-0.2384,0,-0.2756,-0.2691,-0.2685,-0.2645,-0.2627,-0.2627,-0.2584,-0.2559,-0.2511,-0.2486,-0.2489,-0.2435,-0.2435,-0.2392,-0.2378,-0.238,-0.2357,-0.238,-0.23,-0.2291,-0.2283,-0.2248,-0.2236,-0.2381,-0.2382,-0.2382,-0.2382,0,-0.2681,-0.2644,-0.2621,-0.2571,-0.2558,-0.2518,-0.2501,-0.2473,-0.2456,-0.2428,-0.2376,-0.2364,-0.2334,-0.2329,-0.2342,-0.2285,-0.2289,-0.2302,-0.2316,-0.2268,-0.2235,-0.2223,-0.2378,-0.2379,-0.2379,-0.238,0,0,-0.2649,-0.2578,-0.257,-0.2536,-0.2512,-0.2487,-0.2454,-0.2406,-0.2381,-0.2334,-0.2282,-0.2255,-0.2256,-0.2249,-0.2256,-0.2219,-0.2148,-0.2234,-0.2233,-0.2196,-0.2045,-0.2098,-0.2091,-0.2142,-0.214,-0.2139,-0.2043,0,-0.2583,-0.249,-0.248,-0.2413,-0.2368,-0.2381,-0.2353,-0.2327,-0.2307,-0.2263,-0.224,-0.2206,-0.2223,-0.2215,-0.2175,-0.2169,-0.2116,-0.2173,-0.21,-0.2097,-0.2148,-0.2078,-0.2121,-0.2044,-0.2031,-0.203,-0.2028,0,-0.2496,-0.2448,-0.2364,-0.2321,-0.2307,-0.2286,-0.226,-0.2232,-0.2203,-0.2187,-0.2154,-0.2151,-0.2105,-0.2127,-0.2049,-0.2084,-0.2054,-0.2038,-0.2034,-0.2094,-0.2128,-0.2091,-0.2023,-0.2024,-0.201,-0.2012,-0.2013,0,-0.2441,-0.2364,-0.2294,-0.2278,-0.2241,-0.2221,-0.2213,-0.2202,-0.2193,-0.2147,-0.2148,-0.208,-0.2069,-0.2007,-0.2,-0.201,-0.1917,-0.1927,-0.1932,-0.1936,-0.1965,-0.1976,-0.189,-0.1841,-0.1841,-0.1841,-0.1842,0,-0.2357,-0.2303,-0.2264,-0.2227,-0.2185,-0.2177,-0.2147,-0.214,-0.2136,-0.2135,-0.2111,-0.211,-0.204,-0.2001,-0.1965,-0.1924,-0.1882,-0.1908,-0.1907,-0.195,-0.196,-0.196,-0.1889,-0.1838,-0.1839,-0.1839,-0.184,0,-0.2303,-0.2261,-0.2198,-0.2159,-0.2154,-0.2132,-0.2142,-0.213,-0.2132,-0.2137,-0.2129,-0.2115,-0.2072,-0.2012,-0.1924,-0.1902,-0.181,-0.1836,-0.1902,-0.1911,-0.1931,-0.1854,-0.1694,-0.163,-0.1806,-0.1807,-0.1808,0,-0.2258,-0.2212,-0.2175,-0.2162,-0.2147,-0.2125,-0.2125,-0.2127,-0.2133,-0.2158,-0.2161,-0.2134,-0.2155,-0.2053,-0.1998,-0.192,-0.1816,-0.1869,-0.1898,-0.1921,-0.1833,-0.1782,-0.1734,-0.1904,-0.1906,-0.1907,-0.1908,0,-0.2202,-0.2197,-0.2161,-0.2134,-0.2124,-0.2117,-0.2116,-0.2138,-0.2154,-0.2197,-0.2252,-0.2283,-0.2234,-0.222,-0.2113,-0.2029,-0.1827,-0.189,-0.1879,-0.1865,-0.1831,-0.1776,-0.1985,-0.1917,-0.1916,-0.1915,-0.1915,-0.1914,-0.2188,-0.2162,-0.2121,-0.2089,-0.209,-0.2097,-0.2073,-0.2136,-0.2185,-0.2253,-0.2324,-0.2377,-0.2385,-0.229,-0.2209,-0.2055,-0.193,-0.1972,-0.1863,-0.1803,-0.1775,-0.2019,-0.1984,-0.1983,-0.1983,-0.1983,-0.1982,0,-0.214,-0.2101,-0.2076,-0.2035,-0.2017,-0.2025,-0.2044,-0.204,-0.2112,-0.2256,-0.2357,-0.2433,-0.2482,-0.2384,-0.2252,-0.2085,-0.1995,-0.1933,-0.1863,-0.1801,-0.2009,-0.2058,-0.2082,-0.2082,-0.2082,-0.2082,-0.2082,-0.2082,-0.211,-0.2044,-0.2008,-0.194,-0.1923,-0.1849,-0.1838,-0.1907,-0.1976,-0.2086,-0.2149,-0.2187,-0.2075,-0.2212,-0.2076,-0.1999,-0.1824,-0.1777,-0.1659,-0.1838,-0.1835,-0.1832,-0.1869,-0.1853,-0.1852,-0.1525,-0.1521,-0.1519]},{"header":{"parameterUnit":"m.s-1","parameterCategory":2,"la1":30.2991,"la2":30.254,"lo1":-89.0895,"lo2":-89.0444,"dy":0.0017,"dx":0.0017,"nx":28,"ny":28,"refTime":"2024-02-02T03:00:00:Z","depth":"0","parameterNumber":3,"parameterNumberName":"V-component_of_CURRENTS"},"data":[0,0,0,0,0,0,0,0,0,0,0,0,0,0,0,0,0,0,0,0,0,0,0,0,0,0,0,0,0,0,0,0,0,0,0,0,0,0,0,0,0,0,0,0,0,0,0,0,0,0,0,0,0,0,0,0,0,0,-0.118,-0.1181,0,-0.1199,-0.1199,-0.1199,-0.1209,-0.1209,-0.121,-0.121,-0.0929,-0.0922,-0.0914,0,0,0,0,0,0,0,0,0,0,0,0,0,-0.1146,-0.1147,-0.118,-0.1181,-0.1182,-0.1199,-0.1199,-0.1199,-0.1209,-0.1209,-0.121,-0.1211,-0.0932,-0.0923,-0.0913,0,0,0,0,0,0,0,0,0,0,0,0,0,-0.1157,-0.1147,-0.118,-0.1194,-0.1196,-0.1199,-0.1199,-0.1198,-0.1208,-0.1209,-0.121,-0.1211,-0.0935,-0.0923,-0.0912,-0.0819,0,0,-0.0875,-0.0869,0,0,0,0,0,0,0,0,-0.1156,-0.1157,-0.1191,-0.1193,-0.1195,-0.1208,-0.1085,-0.1059,-0.1208,-0.1197,-0.121,-0.1212,-0.0998,-0.0981,-0.0978,-0.0805,-0.0793,-0.0874,-0.0866,-0.0861,-0.0858,0,0,0,0,0,0,0,-0.1155,-0.1156,-0.1181,-0.1192,-0.1194,-0.1198,-0.1199,-0.1081,-0.1081,-0.1198,-0.12,-0.1212,-0.0997,-0.099,-0.097,-0.0789,-0.0874,-0.0863,-0.0856,-0.0851,-0.0538,-0.0537,0,0,0,0,0,0,-0.1165,-0.1156,-0.1181,-0.1182,-0.1185,-0.1198,-0.1199,-0.1198,-0.1089,-0.1078,-0.1212,-0.1213,-0.101,-0.0985,-0.096,-0.0848,-0.0861,-0.085,-0.0843,-0.0539,-0.0538,-0.0536,0,0,0,0,0,0,-0.1164,-0.1167,-0.118,-0.1176,-0.1178,-0.1198,-0.1196,-0.1198,-0.119,-0.1104,-0.1086,-0.1202,-0.101,-0.0977,-0.0885,-0.0837,-0.0844,-0.0833,-0.054,-0.0538,-0.0537,-0.0619,0,0,0,0,0,0,-0.1163,-0.1166,-0.1156,-0.1176,-0.1179,-0.1167,-0.1196,-0.1198,-0.1199,-0.1201,-0.1089,-0.1066,-0.1008,-0.0904,-0.0873,-0.082,-0.0824,-0.0542,-0.0539,-0.0538,-0.0618,-0.0621,-0.0623,0,0,0,0,0,-0.1161,-0.1131,-0.1154,-0.1158,-0.1168,-0.1166,-0.1166,-0.118,-0.1198,-0.1178,-0.114,-0.1069,-0.0868,-0.0894,-0.0858,-0.08,-0.0542,-0.054,-0.0538,-0.0617,-0.062,-0.0623,0,0,0,0,0,0,-0.1104,-0.1131,-0.1157,-0.1136,-0.1152,-0.117,-0.1153,-0.1174,-0.1133,-0.1127,-0.1059,-0.1031,-0.093,-0.0855,-0.0886,-0.0706,-0.0689,-0.0679,-0.0761,-0.0763,-0.0766,-0.0739,-0.0814,0,0,0,0,0,-0.1093,-0.1081,-0.1115,-0.11,-0.1104,-0.1131,-0.1131,-0.1146,-0.1126,-0.1112,-0.1051,-0.097,-0.0889,-0.0826,-0.0738,-0.0629,-0.0568,-0.0567,-0.057,-0.0573,-0.0527,-0.0437,-0.0428,-0.0529,-0.0529,-0.0529,0,0,-0.1069,-0.1083,-0.1077,-0.1088,-0.1099,-0.1085,-0.113,-0.1123,-0.1106,-0.1075,-0.1011,-0.0969,-0.0867,-0.0775,-0.0717,-0.0703,-0.0522,-0.0569,-0.0573,-0.0524,-0.0434,-0.0424,-0.0415,-0.0527,-0.0527,-0.0527,0,0,-0.1006,-0.1026,-0.0993,-0.1003,-0.1023,-0.1041,-0.1041,-0.1056,-0.1053,-0.1003,-0.0989,-0.0932,-0.0794,-0.0736,-0.0682,-0.0629,-0.0547,-0.0597,-0.0568,-0.0485,-0.0476,-0.0467,-0.0428,-0.0414,-0.0588,-0.0589,-0.0589,0,-0.0976,-0.0946,-0.0982,-0.0958,-0.096,-0.1019,-0.0987,-0.0989,-0.0977,-0.096,-0.0976,-0.0835,-0.0765,-0.0656,-0.0662,-0.0627,-0.0589,-0.0576,-0.049,-0.0479,-0.0468,-0.043,-0.0414,-0.0592,-0.0592,-0.0592,-0.0591,0,-0.0894,-0.0875,-0.0854,-0.085,-0.0853,-0.0834,-0.0864,-0.0859,-0.0876,-0.088,-0.0802,-0.0754,-0.0666,-0.0648,-0.0635,-0.0526,-0.0531,-0.0519,-0.049,-0.0463,-0.0425,-0.0407,-0.0598,-0.0596,-0.0595,-0.0594,0,0,-0.0811,-0.0797,-0.079,-0.079,-0.0796,-0.0803,-0.0769,-0.0759,-0.0748,-0.073,-0.0683,-0.0598,-0.0606,-0.0545,-0.0532,-0.0468,-0.0403,-0.0467,-0.0461,-0.0442,-0.025,-0.0292,-0.0276,-0.0389,-0.0385,-0.0382,-0.0274,0,-0.0735,-0.0684,-0.0685,-0.0648,-0.0636,-0.0672,-0.0647,-0.0653,-0.0655,-0.0628,-0.0592,-0.0539,-0.0556,-0.0536,-0.0473,-0.0416,-0.035,-0.0434,-0.0261,-0.0256,-0.0307,-0.0253,-0.0242,-0.0145,-0.0256,-0.0253,-0.025,0,-0.0643,-0.0637,-0.0583,-0.0585,-0.058,-0.0567,-0.0569,-0.0553,-0.0532,-0.0527,-0.0479,-0.0468,-0.0384,-0.041,-0.0266,-0.0327,-0.0274,-0.0237,-0.0232,-0.021,-0.0261,-0.0175,-0.0108,0.0109,-0.0222,-0.0224,-0.0226,0,-0.0603,-0.056,-0.0528,-0.0528,-0.0535,-0.052,-0.0526,-0.052,-0.0524,-0.047,-0.0462,-0.0366,-0.0329,-0.0232,-0.0184,-0.0212,-0.0036,-0.006,-0.004,-0.0045,0.0039,0.0035,0.0339,0.0084,0.0083,0.0083,0.0083,0,-0.0527,-0.0502,-0.0517,-0.0515,-0.051,-0.0506,-0.0497,-0.0494,-0.0473,-0.0479,-0.0418,-0.0394,-0.028,-0.0199,-0.0139,-0.0042,0.0009,0.0001,0.0005,0.0001,-0.0007,0.0245,0.0386,0.0087,0.0086,0.0086,0.0085,0,-0.0482,-0.0476,-0.0473,-0.0488,-0.0498,-0.0509,-0.0533,-0.0538,-0.0498,-0.0498,-0.0482,-0.0395,-0.0289,-0.019,-0.0033,0.0005,0.0212,0.0133,0.009,0.0088,0.0283,0.0417,0.0614,0.0723,0.0187,0.0187,0.0186,0,-0.0443,-0.0437,-0.0492,-0.0528,-0.0538,-0.0558,-0.0588,-0.0571,-0.0586,-0.0521,-0.0526,-0.0405,-0.036,-0.0148,-0.0024,0.0109,0.0253,0.0196,0.0165,0.0339,0.0494,0.044,0.0515,0.0225,0.0225,0.0225,0.0226,0,-0.0406,-0.0439,-0.0467,-0.0557,-0.0603,-0.0656,-0.0688,-0.0708,-0.0689,-0.0672,-0.0631,-0.057,-0.0358,-0.0186,0.0006,0.0077,0.0343,0.0201,0.044,0.0621,0.0537,0.0625,0.0072,0.0228,0.0228,0.0227,0.0227,0.0227,-0.0403,-0.0437,-0.0508,-0.0591,-0.0664,-0.0755,-0.0802,-0.0842,-0.0874,-0.086,-0.0757,-0.061,-0.0283,-0.0016,0.0064,0.0386,0.0371,0.0508,0.0671,0.0605,0.0695,0.0113,0.0228,0.0228,0.0228,0.0228,0.0228,0,-0.0402,-0.046,-0.0541,-0.0666,-0.0775,-0.0795,-0.0876,-0.0924,-0.0993,-0.0913,-0.0875,-0.0399,-0.0101,0.0237,0.0659,0.0856,0.0827,0.1026,0.1045,0.1114,0.0674,0.0663,0.081,0.081,0.081,0.081,0.081,0.0809,-0.0411,-0.0487,-0.0544,-0.0738,-0.0833,-0.0955,-0.1006,-0.107,-0.1022,-0.0844,-0.0541,-0.0277,0.0375,0.0975,0.1381,0.1407,0.1658,0.159,0.1757,0.157,0.1535,0.1501,0.1525,0.185,0.1852,0.2069,0.2074,0.2077]}],[{"header":{"parameterUnit":"m.s-1","parameterCategory":2,"la1":30.2991,"la2":30.254,"lo1":-89.0895,"lo2":-89.0444,"dy":0.0017,"dx":0.0017,"nx":28,"ny":28,"refTime":"2024-02-02T03:00:00:Z","depth":"2","parameterNumber":2,"parameterNumberName":"U-component_of_CURRENTS"},"data":[0,0,0,0,0,0,0,0,0,0,0,0,0,0,0,0,0,0,0,0,0,0,0,0,0,0,0,0,0,0,0,0,0,0,0,0,0,0,0,0,0,0,0,0,0,0,0,0,0,0,0,0,0,0,0,0,0,0,-0.2211,-0.2211,0,-0.2234,-0.2234,-0.2234,-0.2225,-0.2225,-0.2225,-0.2225,-0.2196,-0.2195,-0.2195,0,0,0,0,0,0,0,0,0,0,0,0,0,-0.2142,-0.2143,-0.2211,-0.2211,-0.2212,-0.2234,-0.2234,-0.2234,-0.2225,-0.2225,-0.2225,-0.2225,-0.2196,-0.2195,-0.2195,0,0,0,0,0,0,0,0,0,0,0,0,0,-0.2166,-0.2144,-0.2211,-0.2213,-0.2213,-0.2234,-0.2234,-0.2234,-0.2225,-0.2225,-0.2225,-0.2224,-0.2196,-0.2195,-0.2195,-0.2196,0,0,-0.2192,-0.2192,0,0,0,0,0,0,0,0,-0.2165,-0.2168,-0.2212,-0.2213,-0.2213,-0.2229,-0.2199,-0.222,-0.2226,-0.2218,-0.2225,-0.2224,-0.2204,-0.2203,-0.2204,-0.2195,-0.2194,-0.2192,-0.2191,-0.2191,-0.2191,0,0,0,0,0,0,0,-0.2163,-0.2167,-0.2217,-0.2213,-0.2214,-0.2206,-0.2209,-0.2203,-0.2209,-0.2218,-0.2219,-0.2226,-0.2204,-0.2205,-0.2203,-0.2193,-0.2192,-0.2191,-0.2191,-0.219,-0.2183,-0.2184,0,0,0,0,0,0,-0.2168,-0.2166,-0.2216,-0.2218,-0.2191,-0.2208,-0.2211,-0.2222,-0.2211,-0.221,-0.2226,-0.2226,-0.2207,-0.2204,-0.2202,-0.2191,-0.2191,-0.219,-0.219,-0.2183,-0.2184,-0.2184,0,0,0,0,0,0,-0.2167,-0.2173,-0.2215,-0.2194,-0.22,-0.221,-0.2222,-0.2223,-0.2222,-0.2218,-0.2215,-0.2225,-0.2206,-0.2203,-0.2197,-0.219,-0.219,-0.2189,-0.2183,-0.2183,-0.2184,-0.2176,0,0,0,0,0,0,-0.2165,-0.2172,-0.2172,-0.2195,-0.2201,-0.2237,-0.2223,-0.2223,-0.2229,-0.2228,-0.2216,-0.2213,-0.2206,-0.2198,-0.2196,-0.2189,-0.2189,-0.2182,-0.2183,-0.2184,-0.2176,-0.2176,-0.2176,0,0,0,0,0,-0.2162,-0.2167,-0.2172,-0.2177,-0.2204,-0.2238,-0.224,-0.2244,-0.2229,-0.2238,-0.2223,-0.2213,-0.22,-0.2198,-0.2195,-0.2187,-0.2182,-0.2183,-0.2184,-0.2176,-0.2176,-0.2176,0,0,0,0,0,0,-0.2128,-0.2168,-0.2173,-0.2187,-0.2215,-0.2238,-0.224,-0.2243,-0.2239,-0.2228,-0.2216,-0.2213,-0.2206,-0.2202,-0.2199,-0.219,-0.219,-0.2191,-0.2185,-0.2185,-0.2186,-0.2183,-0.2188,0,0,0,0,0,-0.2125,-0.2137,-0.2179,-0.2184,-0.2203,-0.222,-0.2228,-0.2236,-0.2241,-0.2238,-0.2229,-0.2216,-0.2208,-0.2201,-0.2198,-0.2189,-0.2187,-0.2185,-0.2185,-0.2185,-0.2183,-0.2181,-0.2181,-0.2186,-0.2186,-0.2186,0,0,-0.2106,-0.2132,-0.2134,-0.2178,-0.2194,-0.2224,-0.2223,-0.2242,-0.2248,-0.2235,-0.2226,-0.2218,-0.2208,-0.2201,-0.2197,-0.2194,-0.2182,-0.2186,-0.2186,-0.2183,-0.2182,-0.2181,-0.2181,-0.2187,-0.2187,-0.2187,0,0,-0.2087,-0.2108,-0.212,-0.2156,-0.2195,-0.2214,-0.2223,-0.225,-0.2245,-0.2247,-0.2233,-0.2223,-0.2213,-0.2204,-0.2196,-0.2198,-0.2187,-0.2196,-0.2187,-0.2186,-0.2185,-0.2184,-0.2176,-0.2175,-0.2191,-0.2191,-0.2191,0,-0.206,-0.2091,-0.2126,-0.216,-0.2185,-0.2213,-0.2238,-0.2244,-0.2257,-0.2248,-0.2244,-0.2224,-0.2214,-0.2199,-0.2196,-0.2196,-0.2192,-0.2183,-0.2185,-0.2184,-0.2184,-0.2175,-0.2174,-0.2191,-0.2191,-0.2191,-0.2191,0,-0.2062,-0.2094,-0.2107,-0.2159,-0.2191,-0.2217,-0.2251,-0.2257,-0.2252,-0.2252,-0.2238,-0.2227,-0.2213,-0.2208,-0.2197,-0.2186,-0.2183,-0.2188,-0.2181,-0.2183,-0.2174,-0.2173,-0.219,-0.219,-0.2191,-0.2191,0,0,-0.1979,-0.2086,-0.2087,-0.2131,-0.2196,-0.2227,-0.2237,-0.2258,-0.2259,-0.2253,-0.2243,-0.2222,-0.221,-0.2202,-0.2189,-0.2182,-0.2169,-0.2177,-0.2177,-0.2164,-0.2158,-0.2094,-0.2086,-0.2172,-0.2172,-0.2172,-0.2152,0,-0.1966,-0.2043,-0.2083,-0.2142,-0.2197,-0.2232,-0.2244,-0.2262,-0.2265,-0.2264,-0.2238,-0.2231,-0.2209,-0.2201,-0.2187,-0.218,-0.2166,-0.2173,-0.2164,-0.2164,-0.2102,-0.2083,-0.1873,-0.1832,-0.2151,-0.215,-0.215,0,-0.1955,-0.2017,-0.2086,-0.2173,-0.2192,-0.2213,-0.2251,-0.2268,-0.2271,-0.2264,-0.2246,-0.2238,-0.2213,-0.2205,-0.2176,-0.218,-0.2163,-0.2157,-0.2156,-0.2097,-0.2096,-0.1884,-0.1818,-0.2148,-0.2148,-0.2148,-0.2149,0,-0.1934,-0.2013,-0.2072,-0.2108,-0.2205,-0.2209,-0.2234,-0.2258,-0.2279,-0.2266,-0.2278,-0.2241,-0.2236,-0.2207,-0.2178,-0.2179,-0.2154,-0.2158,-0.2083,-0.2079,-0.1898,-0.1878,-0.2138,-0.2138,-0.2138,-0.2138,-0.2138,0,-0.194,-0.1984,-0.2063,-0.2115,-0.2158,-0.2206,-0.2238,-0.2254,-0.2273,-0.2298,-0.2276,-0.2285,-0.2239,-0.2221,-0.2184,-0.2119,-0.2155,-0.2071,-0.2064,-0.1889,-0.187,-0.2146,-0.2148,-0.2137,-0.2137,-0.2137,-0.2137,0,-0.1946,-0.1999,-0.2084,-0.2161,-0.2175,-0.2211,-0.2267,-0.2281,-0.2299,-0.2333,-0.2331,-0.2322,-0.2278,-0.2232,-0.2187,-0.2128,-0.2078,-0.205,-0.1841,-0.181,-0.2002,-0.2004,-0.1956,-0.1954,-0.1952,-0.195,-0.1948,0,-0.1968,-0.2016,-0.2121,-0.2149,-0.2182,-0.2229,-0.2249,-0.229,-0.2309,-0.2358,-0.2364,-0.2342,-0.2287,-0.2185,-0.2054,-0.1945,-0.2035,-0.1724,-0.1684,-0.1982,-0.1982,-0.1987,-0.1991,-0.1441,-0.1436,-0.1431,-0.1427,0,-0.2005,-0.2038,-0.2103,-0.2161,-0.2192,-0.2244,-0.2272,-0.2303,-0.2342,-0.233,-0.2328,-0.2289,-0.2182,-0.1942,-0.1796,-0.1716,-0.1717,-0.163,-0.198,-0.153,-0.1497,-0.1497,-0.1518,-0.1387,-0.1391,-0.1394,-0.1396,-0.1398,-0.2002,-0.204,-0.2097,-0.2136,-0.2179,-0.2205,-0.2178,-0.2197,-0.2189,-0.2088,-0.2166,-0.1991,-0.1886,-0.1542,-0.1445,-0.1365,-0.1486,-0.1383,-0.1396,-0.1415,-0.1368,-0.1335,-0.1185,-0.1188,-0.119,-0.1192,-0.1194,0,-0.1963,-0.1986,-0.2043,-0.207,-0.2061,-0.2112,-0.2128,-0.2022,-0.1917,-0.1884,-0.1754,-0.1447,-0.1249,-0.1225,-0.1029,-0.0974,-0.0962,-0.094,-0.0907,-0.0944,-0.0978,-0.0911,-0.0606,-0.0605,-0.0604,-0.0604,0,0,-0.1932,-0.1954,-0.1977,-0.1923,-0.1914,-0.1816,-0.1785,-0.1643,-0.1565,-0.1347,-0.122,-0.1127,-0.1178,-0.0883,-0.0783,-0.0699,-0.0835,-0.0657,-0.1113,-0.1112,-0.1147,-0.1197,-0.1131,0,0,0,0,0]},{"header":{"parameterUnit":"m.s-1","parameterCategory":2,"la1":30.2991,"la2":30.254,"lo1":-89.0895,"lo2":-89.0444,"dy":0.0017,"dx":0.0017,"nx":28,"ny":28,"refTime":"2024-02-02T03:00:00:Z","depth":"2","parameterNumber":3,"parameterNumberName":"V-component_of_CURRENTS"},"data":[0,0,0,0,0,0,0,0,0,0,0,0,0,0,0,0,0,0,0,0,0,0,0,0,0,0,0,0,0,0,0,0,0,0,0,0,0,0,0,0,0,0,0,0,0,0,0,0,0,0,0,0,0,0,0,0,0,0,0.0007,0.0007,0,0.0003,0.0003,0.0003,0.0008,0.0008,0.0008,0.0008,0.0034,0.0035,0.0035,0,0,0,0,0,0,0,0,0,0,0,0,0,0.0084,0.0082,0.0007,0.0007,0.0007,0.0003,0.0003,0.0003,0.0008,0.0008,0.0008,0.0008,0.0034,0.0035,0.0035,0,0,0,0,0,0,0,0,0,0,0,0,0,0.0063,0.0081,0.0007,0.0008,0.0008,0.0003,0.0003,0.0003,0.0008,0.0008,0.0008,0.0008,0.0034,0.0035,0.0036,0.0039,0,0,0.0038,0.0039,0,0,0,0,0,0,0,0,0.0064,0.006,0.0008,0.0008,0.0008,0.0005,0.004,0.0017,0.0008,0.0009,0.0008,0.0008,0.0026,0.0028,0.0028,0.004,0.0041,0.0038,0.0039,0.0039,0.004,0,0,0,0,0,0,0,0.0066,0.0061,0.0007,0.0008,0.0008,0.0031,0.0028,0.0036,0.0019,0.0009,0.0009,0.0007,0.0027,0.0027,0.0029,0.0042,0.0038,0.0039,0.004,0.004,0.0054,0.0054,0,0,0,0,0,0,0.006,0.0062,0.0007,0.0007,0.0036,0.0029,0.0025,0.0007,0.0018,0.0019,0.0007,0.0007,0.0026,0.0028,0.003,0.0007,0.0039,0.004,0.0041,0.0054,0.0054,0.0054,0,0,0,0,0,0,0.0061,0.0054,0.0007,0.0035,0.003,0.0027,0.0007,0.0007,0.0,0.0016,0.0018,-0.0001,0.0026,0.0029,0.0023,0.001,0.0041,0.0042,0.0055,0.0054,0.0054,-0.0019,0,0,0,0,0,0,0.0063,0.0054,0.0039,0.0033,0.0028,-0.0013,0.0006,0.0007,-0.0002,-0.0001,0.001,0.0013,0.0026,0.0022,0.0024,0.0012,0.0042,0.0055,0.0054,0.0054,-0.0017,-0.0022,-0.0027,0,0,0,0,0,0.0066,0.0032,0.0038,0.0032,0.0006,-0.0014,-0.0015,-0.0014,-0.0002,-0.0017,-0.0006,0.0012,0.0022,0.0022,0.0025,0.0012,0.0055,0.0054,0.0054,-0.0015,-0.0021,-0.0027,0,0,0,0,0,0,0.005,0.0029,0.0036,-0.0004,-0.0011,-0.0014,-0.0027,-0.002,-0.0022,-0.0019,0.0002,0.0004,-0.0004,0.0018,0.0017,0.0018,0.0045,0.0045,-0.0008,-0.0014,-0.0019,-0.0026,0.0043,0,0,0,0,0,0.0043,0.0014,0.0005,-0.0025,-0.003,-0.0025,-0.0032,-0.0031,-0.0032,-0.0033,-0.0023,-0.0007,-0.0001,0.0001,0.0011,0.0007,0.0048,0.0006,0.0,-0.0004,-0.0006,0.0051,0.0051,0.0052,0.0052,0.0052,0,0,0.0028,0.0014,-0.0003,-0.0029,-0.0031,-0.0058,-0.003,-0.0048,-0.0065,-0.0029,-0.0048,-0.0028,-0.0006,-0.0014,-0.0014,0.0,0.0016,-0.0005,-0.0009,-0.0008,0.0051,0.005,0.005,0.0052,0.0052,0.0052,0,0,-0.0021,-0.0026,-0.0067,-0.0076,-0.0088,-0.0084,-0.0092,-0.0095,-0.0092,-0.0104,-0.0081,-0.0069,-0.0062,-0.0049,-0.0041,-0.0064,-0.0015,-0.0058,-0.0091,-0.0037,-0.0036,-0.0035,0.0008,0.0013,-0.0059,-0.0059,-0.0059,0,-0.0036,-0.0088,-0.008,-0.0118,-0.0129,-0.0101,-0.0138,-0.0135,-0.0139,-0.013,-0.012,-0.0092,-0.0078,-0.0076,-0.009,-0.0077,-0.0039,-0.0075,-0.0044,-0.0042,-0.004,0.0005,0.0011,-0.0063,-0.0062,-0.0062,-0.0062,0,-0.0117,-0.015,-0.0173,-0.0209,-0.0218,-0.0245,-0.0235,-0.0236,-0.0217,-0.0201,-0.0188,-0.0162,-0.014,-0.0135,-0.0126,-0.0108,-0.0085,-0.0059,-0.0032,-0.0044,0.0003,0.0011,-0.0068,-0.0067,-0.0066,-0.0065,0,0,-0.0166,-0.0221,-0.0227,-0.025,-0.0265,-0.0281,-0.0298,-0.0298,-0.0292,-0.0275,-0.0264,-0.0252,-0.0213,-0.02,-0.0174,-0.0135,-0.0098,-0.01,-0.0095,-0.0064,0.0017,0.0058,0.0072,-0.0065,-0.0064,-0.0063,0.0041,0,-0.0228,-0.0315,-0.0319,-0.0379,-0.0416,-0.0386,-0.0399,-0.0386,-0.0355,-0.0334,-0.0284,-0.0262,-0.0244,-0.0227,-0.019,-0.0114,-0.0078,-0.0129,0.0031,0.0036,0.0069,0.0082,0.0011,0.0101,0.005,0.0051,0.0052,0,-0.0305,-0.0348,-0.0427,-0.0454,-0.0463,-0.0484,-0.0471,-0.0481,-0.0432,-0.0405,-0.0364,-0.031,-0.0262,-0.0235,-0.0117,-0.0149,-0.0079,-0.0019,-0.0012,0.0059,0.0093,0.0109,0.0119,0.0067,0.0066,0.0065,0.0064,0,-0.0351,-0.0417,-0.0478,-0.0493,-0.0522,-0.0531,-0.0533,-0.0499,-0.0486,-0.044,-0.0402,-0.0339,-0.0282,-0.0196,-0.008,-0.009,0.0065,0.0075,0.0175,0.0178,0.0167,0.0168,0.016,0.016,0.016,0.0159,0.0159,0,-0.0423,-0.0463,-0.0501,-0.0538,-0.0575,-0.0574,-0.0585,-0.0574,-0.0532,-0.0498,-0.0438,-0.0375,-0.0264,-0.0158,-0.0075,0.008,0.0075,0.0175,0.0213,0.0139,0.0136,0.0147,0.0144,0.0163,0.0162,0.0162,0.0161,0,-0.0471,-0.0503,-0.0568,-0.0603,-0.0607,-0.0634,-0.0624,-0.0622,-0.0576,-0.0526,-0.0506,-0.0383,-0.024,-0.013,0.0032,0.0108,0.0235,0.0286,0.0185,0.0209,0.0308,0.03,0.0416,0.0419,0.0421,0.0423,0.0424,0,-0.0508,-0.0553,-0.0613,-0.0641,-0.0658,-0.068,-0.0687,-0.0657,-0.0637,-0.0513,-0.0483,-0.0329,-0.0189,0.005,0.0197,0.0358,0.0306,0.0355,0.0327,0.0312,0.0337,0.0326,0.0315,0.0276,0.0277,0.0277,0.0277,0,-0.0564,-0.0586,-0.0638,-0.0697,-0.0722,-0.0742,-0.0739,-0.072,-0.0656,-0.0585,-0.0429,-0.0292,-0.0026,0.0141,0.0324,0.0397,0.0322,0.0367,0.039,0.0226,0.019,0.0211,0.0204,0.0278,0.0278,0.0277,0.0277,0.0277,-0.059,-0.0634,-0.0699,-0.0751,-0.0779,-0.0789,-0.0792,-0.0757,-0.0704,-0.0597,-0.0458,-0.0272,-0.0096,0.0187,0.0331,0.0448,0.0466,0.0405,0.04,0.0396,0.0366,0.0335,0.0444,0.0445,0.0445,0.0446,0.0446,0,-0.0623,-0.0673,-0.0739,-0.0802,-0.084,-0.0835,-0.0815,-0.0802,-0.0732,-0.0616,-0.0496,-0.0313,-0.0114,0.0091,0.033,0.0475,0.045,0.042,0.0323,0.0321,0.0319,0.028,0.0338,0.0339,0.0339,0.034,0,0,-0.0645,-0.0721,-0.0767,-0.0846,-0.0872,-0.0884,-0.0867,-0.0832,-0.0751,-0.0637,-0.0517,-0.0435,-0.0109,-0.0032,0.0121,0.0253,0.0251,0.0253,0.0317,0.0179,0.0176,0.0282,0.0217,0,0,0,0,0]}],[{"header":{"parameterUnit":"m.s-1","parameterCategory":2,"la1":30.2991,"la2":30.254,"lo1":-89.0895,"lo2":-89.0444,"dy":0.0017,"dx":0.0017,"nx":28,"ny":28,"refTime":"2024-02-02T03:00:00:Z","depth":"4","parameterNumber":2,"parameterNumberName":"U-component_of_CURRENTS"},"data":[0,0,0,0,0,0,0,0,0,0,0,0,0,0,0,0,0,0,0,0,0,0,0,0,0,0,0,0,0,0,0,0,0,0,0,0,0,0,0,0,0,0,0,0,0,0,0,0,0,0,0,0,0,0,0,0,0,0,-0.0904,-0.0904,0,-0.0969,-0.097,-0.0971,-0.0961,-0.0959,-0.0958,-0.0957,-0.0979,-0.098,-0.0982,0,0,0,0,0,0,0,0,0,0,0,0,0,-0.0843,-0.0844,-0.0904,-0.0904,-0.0905,-0.0968,-0.097,-0.0971,-0.0961,-0.0959,-0.0958,-0.0956,-0.0978,-0.098,-0.0982,0,0,0,0,0,0,0,0,0,0,0,0,0,-0.0887,-0.0844,-0.0904,-0.0906,-0.0907,-0.0968,-0.097,-0.0971,-0.0961,-0.0959,-0.0957,-0.0955,-0.0977,-0.098,-0.0983,-0.104,0,0,-0.0991,-0.0992,0,0,0,0,0,0,0,0,-0.0884,-0.0889,-0.0905,-0.0906,-0.0907,-0.0952,-0.0956,-0.0991,-0.0962,-0.0943,-0.0957,-0.0954,-0.0966,-0.0969,-0.099,-0.1041,-0.1042,-0.0991,-0.0993,-0.0994,-0.0995,0,0,0,0,0,0,0,-0.0881,-0.0887,-0.0932,-0.0906,-0.0907,-0.0928,-0.0932,-0.0963,-0.0966,-0.0945,-0.0944,-0.0947,-0.0966,-0.0988,-0.099,-0.1042,-0.0991,-0.0994,-0.0995,-0.0996,-0.1136,-0.1138,0,0,0,0,0,0,-0.0867,-0.0884,-0.093,-0.0934,-0.0887,-0.093,-0.0934,-0.0942,-0.0967,-0.0968,-0.0949,-0.0947,-0.0984,-0.0987,-0.0991,-0.1056,-0.0994,-0.0997,-0.0998,-0.1134,-0.1137,-0.1139,0,0,0,0,0,0,-0.0865,-0.0871,-0.0927,-0.0908,-0.0916,-0.0932,-0.0941,-0.0944,-0.098,-0.097,-0.097,-0.0983,-0.0983,-0.0987,-0.1016,-0.1056,-0.0998,-0.1,-0.1132,-0.1135,-0.1138,-0.1187,0,0,0,0,0,0,-0.0864,-0.087,-0.0889,-0.0907,-0.0917,-0.0962,-0.0943,-0.0947,-0.0983,-0.0981,-0.0999,-0.0998,-0.0981,-0.1012,-0.1018,-0.1059,-0.1003,-0.1129,-0.1133,-0.1137,-0.1183,-0.1191,-0.1199,0,0,0,0,0,-0.0861,-0.0873,-0.0889,-0.0896,-0.0936,-0.0962,-0.097,-0.0976,-0.0987,-0.1003,-0.101,-0.0998,-0.1041,-0.1016,-0.1023,-0.1065,-0.1127,-0.1132,-0.1137,-0.1179,-0.119,-0.1199,0,0,0,0,0,0,-0.0851,-0.0874,-0.0892,-0.0911,-0.094,-0.0959,-0.098,-0.0999,-0.1026,-0.1024,-0.1023,-0.1023,-0.1074,-0.1065,-0.1037,-0.1118,-0.1085,-0.1092,-0.1115,-0.1125,-0.1133,-0.1132,-0.1005,0,0,0,0,0,-0.0862,-0.0886,-0.0908,-0.0932,-0.0945,-0.0979,-0.1,-0.1004,-0.1022,-0.1034,-0.1055,-0.1073,-0.1103,-0.1106,-0.1134,-0.1173,-0.1172,-0.1207,-0.1215,-0.1222,-0.1228,-0.1258,-0.1269,-0.1154,-0.1154,-0.1154,0,0,-0.087,-0.0885,-0.0902,-0.0934,-0.096,-0.099,-0.0987,-0.1015,-0.1051,-0.1033,-0.1097,-0.1116,-0.1126,-0.1167,-0.1188,-0.1157,-0.1256,-0.1227,-0.1233,-0.1236,-0.1264,-0.1275,-0.1285,-0.1157,-0.1157,-0.1156,0,0,-0.0884,-0.0908,-0.0932,-0.0952,-0.0986,-0.101,-0.1026,-0.1065,-0.1091,-0.1156,-0.1151,-0.118,-0.1246,-0.1236,-0.1245,-0.1318,-0.1313,-0.1344,-0.1365,-0.1395,-0.1404,-0.1412,-0.1427,-0.1436,-0.1327,-0.1328,-0.1328,0,-0.0893,-0.0921,-0.0945,-0.0965,-0.0981,-0.1024,-0.1047,-0.1094,-0.1143,-0.1162,-0.1181,-0.1273,-0.1278,-0.1306,-0.1328,-0.1336,-0.1352,-0.1322,-0.1403,-0.1411,-0.1419,-0.1432,-0.1442,-0.1331,-0.133,-0.133,-0.133,0,-0.0916,-0.0945,-0.0957,-0.1005,-0.103,-0.1054,-0.1101,-0.1154,-0.1212,-0.1245,-0.1319,-0.1341,-0.138,-0.1398,-0.139,-0.1442,-0.1438,-0.1424,-0.1373,-0.1433,-0.1444,-0.1453,-0.1335,-0.1334,-0.1333,-0.1332,0,0,-0.0907,-0.0965,-0.0969,-0.0991,-0.1044,-0.1061,-0.1134,-0.1191,-0.1239,-0.1316,-0.1376,-0.1435,-0.145,-0.1462,-0.146,-0.148,-0.1545,-0.1478,-0.1478,-0.1482,-0.1615,-0.1395,-0.1383,-0.1552,-0.1554,-0.1555,-0.1601,0,-0.092,-0.0965,-0.0984,-0.1033,-0.106,-0.1101,-0.1169,-0.1223,-0.129,-0.1365,-0.1404,-0.1474,-0.1474,-0.1505,-0.1528,-0.1537,-0.1572,-0.1533,-0.1566,-0.1566,-0.1354,-0.1386,-0.1561,-0.1608,-0.161,-0.1611,-0.1612,0,-0.0922,-0.0956,-0.1003,-0.1052,-0.1065,-0.1109,-0.119,-0.1231,-0.1327,-0.139,-0.1451,-0.1506,-0.1548,-0.1564,-0.1611,-0.1591,-0.1623,-0.1634,-0.1636,-0.1416,-0.1361,-0.1537,-0.1627,-0.1626,-0.1625,-0.1624,-0.1623,0,-0.0898,-0.0953,-0.0994,-0.1008,-0.1087,-0.1121,-0.1156,-0.1241,-0.1276,-0.1392,-0.1448,-0.1526,-0.1564,-0.1622,-0.1612,-0.165,-0.1645,-0.1695,-0.1535,-0.1521,-0.1685,-0.1676,-0.177,-0.177,-0.177,-0.177,-0.177,0,-0.0884,-0.0912,-0.0996,-0.1012,-0.106,-0.1102,-0.1157,-0.1211,-0.1298,-0.1301,-0.1439,-0.1458,-0.159,-0.159,-0.1621,-0.1539,-0.1646,-0.1539,-0.1513,-0.1705,-0.1698,-0.1691,-0.1681,-0.1772,-0.1771,-0.1771,-0.1771,0,-0.0845,-0.0903,-0.0943,-0.1027,-0.1048,-0.1069,-0.1132,-0.1169,-0.1258,-0.1271,-0.1315,-0.1426,-0.1415,-0.1474,-0.153,-0.1502,-0.148,-0.1436,-0.1596,-0.1578,-0.1366,-0.1359,-0.1338,-0.1331,-0.1324,-0.1319,-0.1315,0,-0.0831,-0.0855,-0.0928,-0.0944,-0.0982,-0.1028,-0.1059,-0.1145,-0.1162,-0.1191,-0.1181,-0.1227,-0.1272,-0.1182,-0.1255,-0.1283,-0.1281,-0.1293,-0.1396,-0.1343,-0.1321,-0.1324,-0.1325,-0.1304,-0.1303,-0.1301,-0.1299,0,-0.0788,-0.0824,-0.0852,-0.0888,-0.0921,-0.0936,-0.097,-0.0979,-0.1017,-0.1122,-0.1051,-0.1056,-0.1022,-0.1066,-0.1054,-0.1078,-0.1299,-0.1229,-0.1247,-0.1344,-0.1302,-0.1287,-0.1296,-0.1277,-0.1281,-0.1283,-0.1284,0,-0.075,-0.0755,-0.079,-0.0809,-0.0829,-0.0799,-0.0844,-0.0847,-0.0871,-0.092,-0.086,-0.0885,-0.0956,-0.0949,-0.0912,-0.0916,-0.0987,-0.1032,-0.1063,-0.1088,-0.0978,-0.0885,-0.0704,0,0,0,0,0,-0.0704,-0.0694,-0.0702,-0.0698,-0.0707,-0.0715,-0.0755,-0.0806,-0.0849,-0.0771,-0.0822,-0.0775,-0.0749,-0.0781,-0.0751,-0.0825,-0.0988,-0.0787,-0.1055,-0.1155,-0.1181,-0.107,0,0,0,0,0,0,-0.0672,-0.0677,-0.0672,-0.0589,-0.0563,-0.0555,-0.0571,-0.0608,-0.0599,-0.0655,-0.0668,-0.0725,-0.0743,-0.0748,-0.0731,-0.0739,-0.0894,-0.0824,-0.0821,-0.1141,-0.1164,-0.1184,-0.1079,0,0,0,0,0]},{"header":{"parameterUnit":"m.s-1","parameterCategory":2,"la1":30.2991,"la2":30.254,"lo1":-89.0895,"lo2":-89.0444,"dy":0.0017,"dx":0.0017,"nx":28,"ny":28,"refTime":"2024-02-02T03:00:00:Z","depth":"4","parameterNumber":3,"parameterNumberName":"V-component_of_CURRENTS"},"data":[0,0,0,0,0,0,0,0,0,0,0,0,0,0,0,0,0,0,0,0,0,0,0,0,0,0,0,0,0,0,0,0,0,0,0,0,0,0,0,0,0,0,0,0,0,0,0,0,0,0,0,0,0,0,0,0,0,0,-0.023,-0.023,0,-0.0211,-0.0211,-0.021,-0.0194,-0.0194,-0.0194,-0.0194,-0.0181,-0.0181,-0.0181,0,0,0,0,0,0,0,0,0,0,0,0,0,-0.0244,-0.0244,-0.023,-0.023,-0.023,-0.0211,-0.0211,-0.021,-0.0194,-0.0194,-0.0194,-0.0194,-0.0181,-0.0181,-0.0181,0,0,0,0,0,0,0,0,0,0,0,0,0,-0.0231,-0.0244,-0.023,-0.0222,-0.0221,-0.0211,-0.0211,-0.021,-0.0194,-0.0194,-0.0194,-0.0194,-0.0182,-0.0181,-0.0181,-0.0176,0,0,-0.0179,-0.0179,0,0,0,0,0,0,0,0,-0.0232,-0.023,-0.0223,-0.0222,-0.0221,-0.0207,-0.0211,-0.02,-0.0194,-0.0202,-0.0194,-0.0194,-0.0192,-0.0191,-0.0184,-0.0176,-0.0175,-0.0179,-0.0178,-0.0178,-0.0178,0,0,0,0,0,0,0,-0.0233,-0.0231,-0.0221,-0.0223,-0.0222,-0.0216,-0.0214,-0.0208,-0.0195,-0.0201,-0.0201,-0.0202,-0.0191,-0.0184,-0.0183,-0.0175,-0.0179,-0.0178,-0.0178,-0.0178,-0.019,-0.0191,0,0,0,0,0,0,-0.024,-0.0232,-0.0221,-0.022,-0.0229,-0.0216,-0.0213,-0.021,-0.0195,-0.0194,-0.0202,-0.0201,-0.0185,-0.0184,-0.0183,-0.0218,-0.0178,-0.0178,-0.0177,-0.0189,-0.019,-0.0191,0,0,0,0,0,0,-0.024,-0.0239,-0.0222,-0.0228,-0.0225,-0.0216,-0.0212,-0.0209,-0.0204,-0.0196,-0.0194,-0.0199,-0.0185,-0.0184,-0.019,-0.0216,-0.0177,-0.0177,-0.0189,-0.019,-0.019,-0.0263,0,0,0,0,0,0,-0.024,-0.0239,-0.024,-0.0228,-0.0225,-0.0224,-0.0212,-0.0209,-0.0205,-0.0204,-0.0193,-0.0192,-0.0185,-0.0192,-0.019,-0.0215,-0.0177,-0.0188,-0.0189,-0.019,-0.026,-0.0267,-0.0272,0,0,0,0,0,-0.0241,-0.0248,-0.024,-0.0239,-0.0226,-0.0225,-0.0223,-0.0215,-0.0205,-0.0208,-0.0205,-0.0192,-0.0198,-0.0192,-0.019,-0.0215,-0.0187,-0.0189,-0.019,-0.0257,-0.0266,-0.0272,0,0,0,0,0,0,-0.0259,-0.0246,-0.0238,-0.0241,-0.0236,-0.0223,-0.0227,-0.0216,-0.0213,-0.0215,-0.02,-0.0199,-0.0213,-0.02,-0.0193,-0.022,-0.019,-0.0192,-0.0242,-0.025,-0.0256,-0.0256,-0.0176,0,0,0,0,0,-0.0262,-0.0261,-0.0249,-0.0253,-0.0251,-0.0237,-0.0235,-0.023,-0.0226,-0.0224,-0.0216,-0.0212,-0.0216,-0.0222,-0.0217,-0.0234,-0.0203,-0.0247,-0.0253,-0.0259,-0.0257,-0.0233,-0.0236,-0.0196,-0.0196,-0.0196,0,0,-0.0271,-0.0264,-0.0264,-0.0257,-0.025,-0.0262,-0.0235,-0.024,-0.0252,-0.0224,-0.0239,-0.0229,-0.0222,-0.0243,-0.0249,-0.0239,-0.0255,-0.0261,-0.0266,-0.026,-0.0234,-0.0238,-0.0242,-0.0197,-0.0196,-0.0196,0,0,-0.0293,-0.0281,-0.0288,-0.0289,-0.0287,-0.0282,-0.0285,-0.0275,-0.0272,-0.0283,-0.027,-0.0284,-0.0276,-0.0291,-0.0294,-0.033,-0.0282,-0.0319,-0.036,-0.0338,-0.0341,-0.0343,-0.0313,-0.0312,-0.033,-0.033,-0.033,0,-0.0305,-0.0313,-0.0292,-0.0306,-0.0318,-0.0295,-0.0318,-0.0312,-0.0308,-0.0315,-0.0298,-0.0306,-0.0306,-0.0342,-0.0355,-0.0348,-0.0309,-0.0338,-0.0346,-0.0348,-0.0349,-0.0317,-0.0315,-0.0334,-0.0333,-0.0333,-0.0333,0,-0.033,-0.0344,-0.0352,-0.0362,-0.0371,-0.0388,-0.0384,-0.0389,-0.0382,-0.0379,-0.0396,-0.039,-0.0399,-0.0403,-0.039,-0.0407,-0.0368,-0.0351,-0.0329,-0.0357,-0.0322,-0.0318,-0.0339,-0.0338,-0.0337,-0.0336,0,0,-0.0339,-0.0365,-0.0369,-0.0393,-0.0406,-0.0419,-0.0443,-0.0461,-0.0485,-0.0469,-0.0495,-0.0504,-0.0488,-0.0489,-0.0477,-0.0461,-0.0446,-0.0407,-0.0404,-0.038,-0.0372,-0.0346,-0.034,-0.0416,-0.0415,-0.0415,-0.0345,0,-0.0367,-0.041,-0.0416,-0.047,-0.0496,-0.0498,-0.0533,-0.0547,-0.0545,-0.0562,-0.0548,-0.0568,-0.0524,-0.0537,-0.0511,-0.0475,-0.0438,-0.0465,-0.0345,-0.0342,-0.0318,-0.0336,-0.0415,-0.0343,-0.0342,-0.0341,-0.0341,0,-0.0391,-0.0419,-0.0475,-0.0539,-0.0552,-0.0586,-0.0637,-0.0659,-0.0674,-0.0675,-0.0672,-0.0648,-0.0651,-0.0593,-0.0524,-0.0534,-0.0447,-0.0398,-0.0394,-0.0341,-0.031,-0.0306,-0.0334,-0.0334,-0.0335,-0.0335,-0.0336,0,-0.0408,-0.0466,-0.0516,-0.0535,-0.0597,-0.0633,-0.0665,-0.0698,-0.0721,-0.074,-0.0759,-0.0736,-0.073,-0.0639,-0.054,-0.0523,-0.0435,-0.041,-0.0295,-0.0292,-0.0303,-0.0301,-0.0318,-0.0318,-0.0318,-0.0318,-0.0319,0,-0.0436,-0.0478,-0.0533,-0.0561,-0.0637,-0.067,-0.0742,-0.0766,-0.0802,-0.082,-0.0815,-0.0805,-0.0729,-0.0667,-0.0561,-0.0431,-0.0451,-0.0299,-0.0274,-0.0336,-0.0338,-0.03,-0.0299,-0.0316,-0.0316,-0.0317,-0.0317,0,-0.0448,-0.048,-0.0545,-0.0619,-0.0647,-0.0701,-0.0779,-0.0823,-0.0862,-0.088,-0.0888,-0.0858,-0.0772,-0.0692,-0.0552,-0.0464,-0.0351,-0.0279,-0.036,-0.034,-0.021,-0.0214,-0.0158,-0.0156,-0.0155,-0.0154,-0.0153,0,-0.046,-0.0492,-0.0577,-0.0619,-0.0656,-0.0733,-0.0787,-0.0842,-0.0863,-0.0882,-0.0876,-0.0826,-0.0779,-0.0598,-0.0498,-0.0335,-0.028,-0.0236,-0.0208,-0.0214,-0.0195,-0.02,-0.0205,-0.0151,-0.0151,-0.0151,-0.015,0,-0.0482,-0.051,-0.0559,-0.0637,-0.0701,-0.0767,-0.0827,-0.084,-0.0873,-0.0915,-0.0847,-0.0767,-0.0665,-0.0541,-0.0434,-0.0299,-0.0297,-0.0222,-0.0223,-0.0196,-0.0205,-0.0189,-0.0195,-0.0146,-0.0147,-0.0147,-0.0147,0,-0.0495,-0.053,-0.0586,-0.0655,-0.0728,-0.077,-0.0807,-0.0816,-0.084,-0.084,-0.0792,-0.0718,-0.067,-0.0516,-0.0405,-0.0308,-0.025,-0.0206,-0.0207,-0.021,-0.0249,-0.027,-0.0209,0,0,0,0,0,-0.0503,-0.0536,-0.06,-0.0666,-0.0733,-0.0772,-0.082,-0.0843,-0.0852,-0.0796,-0.0794,-0.0688,-0.053,-0.0474,-0.0362,-0.0365,-0.024,-0.0229,-0.0191,-0.0123,-0.0128,-0.0163,0,0,0,0,0,0,-0.0512,-0.0563,-0.0592,-0.0655,-0.0698,-0.0764,-0.0792,-0.08,-0.0762,-0.0757,-0.0676,-0.065,-0.0505,-0.0593,-0.0357,-0.033,-0.0286,-0.017,-0.0167,-0.012,-0.0124,-0.0128,-0.0166,0,0,0,0,0]}]]